Theta_e
325 326 328 328 329 329 330 329 330 330 330 331 331 332 333 333 332 331 332 333 333 332 331 331 329 328 326 327 326 325 329 331 333 333 333 335 336 336 337 338 336 336 336 334 334 337 334 334 333 334 334 335 334 332 332 331 331 330 330 328 329 326 325 326 329 328 323 324 321 322 325 327 327 326 326 326 328 332 331 332 332 332 332 332 332
323 324 326 327 329 328 328 328 330 328 329 331 331 332 332 333 332 332 332 333 334 333 331 331 329 328 326 325 327 328 329 331 332 333 332 334 333 334 336 335 333 334 335 334 335 333 332 334 334 334 332 331 333 334 333 334 330 330 329 327 327 328 327 327 331 327 319 321 321 321 318 320 323 322 324 328 330 331 332 331 332 332 332 333 332
321 323 325 327 329 328 327 327 329 330 330 331 333 332 332 332 331 331 331 332 333 332 331 329 327 327 328 327 330 330 332 332 333 333 334 332 332 335 335 333 333 332 333 334 333 333 333 333 332 330 330 332 332 332 331 331 329 330 329 328 326 326 326 330 329 327 323 322 319 315 311 317 319 317 318 327 328 328 328 330 332 331 332 332 332
319 321 323 326 328 327 327 326 328 330 330 331 332 332 332 331 331 332 331 331 331 332 331 329 331 330 331 332 332 333 332 335 331 330 331 332 333 335 335 335 334 331 333 332 331 332 332 333 332 331 331 333 332 330 330 330 330 329 329 328 327 322 324 324 327 326 325 321 317 316 313 312 312 310 318 325 323 324 326 327 327 330 331 331 331
320 320 323 325 326 326 327 328 329 329 330 331 332 332 332 331 331 332 331 331 331 333 332 333 333 332 332 332 333 332 331 328 327 326 328 331 331 331 333 336 335 333 334 333 334 334 333 333 333 333 331 331 331 329 329 329 329 329 328 327 326 324 322 321 324 327 326 326 322 315 314 311 309 316 321 322 320 325 325 325 327 327 328 329 330
321 321 322 325 325 327 327 329 328 328 329 332 333 332 332 331 332 332 331 331 331 332 333 333 332 331 329 328 326 325 326 325 325 326 327 329 329 330 332 333 334 333 334 333 333 335 331 331 329 328 328 328 328 327 327 327 327 327 328 327 327 325 323 319 321 324 324 326 325 324 323 318 319 319 317 315 320 323 324 324 324 325 326 328 329
320 321 324 325 326 326 327 328 328 329 331 333 333 331 331 331 331 332 331 331 331 332 332 332 330 330 329 329 328 327 326 325 325 327 329 329 330 331 331 331 332 331 331 332 332 330 328 327 327 327 327 326 328 325 325 324 325 326 327 326 324 324 323 319 319 321 319 320 325 323 324 325 325 321 315 318 317 317 320 322 323 323 324 325 327
321 321 324 326 326 326 326 328 329 329 331 332 331 331 331 330 330 330 331 332 332 332 331 331 330 329 328 327 328 327 326 327 328 329 328 330 330 330 330 331 333 332 329 326 327 327 326 325 325 324 324 325 325 323 323 323 324 324 325 325 325 325 324 322 320 321 320 321 324 323 323 323 321 320 321 318 318 316 317 317 317 321 323 322 324
321 322 324 326 326 327 330 328 328 330 331 331 331 331 331 331 330 331 332 333 332 333 332 331 330 330 329 328 327 327 327 328 329 331 329 330 329 328 329 329 327 326 325 324 324 324 325 323 322 322 322 322 324 322 322 322 322 322 322 323 322 322 323 322 320 319 319 318 319 320 320 320 319 318 319 322 317 315 316 316 317 321 319 319 321
321 323 325 326 328 327 326 327 328 328 329 330 331 331 330 330 330 330 332 334 333 333 332 332 331 331 329 328 328 328 328 326 327 328 328 327 327 328 327 324 323 322 322 323 323 323 322 322 321 320 320 322 322 320 320 320 320 320 321 321 320 319 319 319 319 318 318 318 318 318 317 317 319 319 319 320 320 317 315 316 317 317 316 318 320
321 324 326 327 326 325 326 325 327 328 329 330 330 330 330 329 329 331 333 334 334 333 333 331 331 330 329 329 328 327 326 326 326 326 327 327 327 326 324 322 321 320 321 320 320 320 321 321 319 320 320 322 320 318 319 319 319 319 319 319 318 317 317 317 317 317 317 317 317 316 316 317 316 315 315 317 317 317 316 316 317 318 318 317 319
322 324 326 324 323 324 325 325 326 328 328 328 329 330 329 330 331 331 332 333 333 333 332 330 330 330 330 328 328 327 327 326 326 326 328 328 325 322 320 318 317 318 318 318 318 319 319 317 319 318 318 317 317 317 318 318 319 318 318 317 316 316 317 317 315 315 315 315 315 315 315 316 316 316 317 317 316 316 316 316 316 317 317 317 321
322 324 325 323 322 322 323 324 326 327 327 328 329 329 330 331 332 331 331 332 332 332 330 329 330 330 329 328 327 327 327 326 327 326 323 323 323 320 317 316 315 315 315 316 316 317 317 316 316 316 316 317 316 316 316 317 317 317 317 316 315 315 315 315 314 314 314 314 314 315 316 315 315 316 318 317 318 317 317 314 315 317 314 315 317
322 325 325 323 323 324 324 325 325 327 328 329 329 329 330 331 332 331 331 332 331 330 329 329 329 328 329 328 327 327 324 324 323 321 320 319 318 317 316 315 315 314 314 314 316 317 317 317 316 315 315 316 316 316 316 317 317 317 316 315 315 315 315 314 314 314 314 314 314 314 314 314 314 315 316 316 316 315 314 313 312 314 314 313 315
322 324 325 324 324 324 325 325 325 326 328 328 328 330 331 332 331 331 331 331 330 329 330 329 328 327 325 325 324 323 322 321 320 320 318 317 317 316 315 315 315 315 315 315 316 316 316 316 315 314 315 315 315 315 316 316 316 315 315 315 316 315 315 315 315 315 315 315 316 315 315 314 314 314 313 313 314 314 313 312 311 308 309 311 312
322 323 323 324 325 325 325 325 325 326 327 328 328 330 331 331 331 331 331 330 330 330 329 327 325 323 323 322 322 322 321 319 318 318 317 317 316 315 314 314 314 314 315 315 315 315 314 314 315 314 314 314 314 315 315 315 315 314 313 313 314 318 315 315 316 315 315 315 314 314 312 311 311 311 311 311 311 311 310 310 310 309 306 305 310
322 322 323 324 325 325 324 325 326 326 327 327 329 331 331 331 331 330 330 329 328 327 325 324 323 322 321 321 320 319 318 317 316 315 315 315 315 314 314 314 314 314 315 315 315 315 315 314 313 313 313 313 313 314 314 314 314 313 312 312 314 316 316 315 315 314 315 315 313 312 309 309 308 308 307 307 308 308 309 309 310 308 309 306 305
322 323 324 325 325 323 324 325 326 326 326 327 329 332 331 331 331 328 326 324 324 323 322 322 321 320 320 319 318 318 318 317 316 315 315 314 314 314 314 314 313 314 316 316 314 313 314 315 312 312 311 311 311 313 313 313 313 313 314 315 316 315 314 314 315 314 314 314 312 309 307 305 306 305 304 304 305 306 307 307 308 309 309 307 306
321 322 323 324 324 323 323 324 326 326 327 328 330 331 330 330 328 326 323 323 322 322 322 321 321 320 319 319 318 318 317 315 315 315 314 314 313 313 313 312 313 314 314 313 313 312 311 310 309 308 308 309 309 310 312 312 312 313 315 315 315 314 312 312 313 314 314 313 309 305 304 304 304 303 302 302 302 302 304 306 306 307 307 308 307
321 322 323 324 324 323 323 324 325 325 327 329 330 330 328 327 325 323 322 322 321 321 321 320 320 319 319 318 318 318 317 315 314 313 313 312 312 312 312 312 312 313 312 312 311 310 309 308 307 307 307 307 307 308 310 311 313 313 312 312 312 311 311 311 312 313 313 310 306 304 303 303 303 302 301 300 300 300 301 302 304 304 304 305 307
321 322 323 323 323 322 323 325 325 327 328 329 329 327 326 325 323 322 321 320 320 320 319 319 319 318 317 315 315 315 314 314 313 313 312 312 312 312 311 311 311 311 311 310 309 308 307 306 306 307 305 305 306 307 309 310 311 310 310 310 309 309 309 309 310 310 311 308 305 303 302 302 302 300 299 299 299 298 299 300 301 302 302 303 304
321 322 322 322 321 322 324 325 326 327 327 327 326 325 323 322 321 321 320 319 319 318 317 316 316 315 314 313 313 312 312 313 312 311 311 311 310 310 311 310 310 310 309 308 307 307 306 305 305 304 304 304 305 305 307 309 309 308 308 310 309 307 305 304 304 305 308 307 304 301 300 300 300 299 298 298 298 297 298 298 299 300 300 301 304
321 322 321 321 321 322 324 325 325 326 326 325 323 322 321 320 320 320 318 317 317 315 315 314 313 312 312 311 311 311 311 311 310 310 310 310 310 310 310 309 309 309 309 307 306 305 304 304 304 303 303 303 303 303 304 305 305 306 307 306 305 303 302 301 301 302 303 304 302 301 299 299 299 297 297 297 297 297 298 297 298 299 299 300 302
322 322 321 321 322 324 325 324 325 325 323 322 321 321 320 319 319 318 316 315 314 314 313 312 311 311 311 310 310 310 310 310 309 309 309 309 310 310 310 310 309 307 306 306 305 304 304 303 302 302 301 300 300 300 301 301 302 304 305 303 301 301 300 300 300 300 301 301 300 299 299 298 298 296 296 296 297 297 297 297 298 299 300 300 302
320 320 319 320 322 323 324 324 324 323 322 321 320 319 318 318 318 316 314 314 313 313 312 312 311 310 310 310 310 310 310 310 309 309 309 310 309 309 310 309 308 306 306 305 305 304 303 302 301 300 299 298 298 298 299 300 301 303 304 302 301 300 299 299 299 299 303 300 299 298 298 298 297 296 296 295 296 296 297 298 298 299 301 302 303
319 318 318 319 321 323 322 322 322 322 320 320 319 318 318 317 316 315 314 313 313 312 312 312 311 311 311 310 310 311 311 310 310 309 309 309 309 308 308 308 307 306 305 304 304 303 303 301 300 299 298 297 297 297 297 299 301 303 303 302 301 300 299 298 298 298 298 299 298 298 297 297 297 295 295 295 295 295 297 298 300 301 303 304 305
319 318 319 320 321 321 321 322 321 320 320 319 318 317 317 316 315 315 313 312 312 312 312 311 311 311 311 310 311 311 310 310 310 309 309 308 307 308 308 307 307 305 304 303 303 302 302 300 299 298 297 297 296 296 297 299 301 302 302 301 300 299 298 298 297 297 297 297 297 297 297 298 297 296 295 295 295 295 297 298 301 302 304 304 302
319 318 319 319 320 320 320 320 320 319 319 318 317 317 316 315 314 313 313 313 312 311 311 311 311 310 310 310 310 310 310 309 308 308 307 307 307 308 308 307 306 304 303 303 302 301 301 300 298 297 297 298 296 297 297 299 301 301 301 300 300 299 297 296 296 296 297 296 297 297 297 298 298 297 296 295 295 295 296 297 299 301 302 302 301
318 318 319 319 319 319 319 319 319 318 317 316 316 315 315 315 314 313 313 312 312 311 310 310 310 309 309 309 309 309 309 309 309 308 307 307 307 307 307 306 305 305 305 303 303 301 300 298 297 296 296 296 296 296 297 299 300 300 300 300 299 298 297 296 295 295 295 296 296 296 298 298 302 303 301 299 299 299 297 296 297 298 300 300 299
318 318 319 319 319 319 318 318 317 316 315 315 314 314 314 313 312 312 312 311 311 310 309 309 308 308 309 309 310 310 309 309 308 307 307 306 306 306 305 304 304 303 303 302 301 300 298 297 296 295 295 296 295 296 299 300 302 301 299 300 299 297 295 295 295 294 294 295 295 295 299 303 302 302 299 296 296 297 299 299 297 297 298 298 298
318 318 318 319 319 318 317 316 315 314 314 314 313 313 313 312 311 311 310 310 310 309 308 308 308 308 309 309 309 309 309 308 307 307 306 305 305 305 304 303 302 301 301 300 298 297 296 296 295 295 294 295 295 296 296 296 298 300 300 298 297 296 294 294 294 293 294 295 294 294 294 298 300 300 298 295 295 295 296 296 297 300 301 298 296
317 317 318 317 317 317 316 314 314 314 313 313 313 312 312 311 310 309 309 310 309 309 308 308 308 308 309 309 309 309 307 307 308 307 306 305 304 304 303 303 302 300 300 298 297 296 296 295 295 294 294 294 294 296 294 296 297 297 300 299 297 296 295 293 293 293 293 293 294 294 294 295 296 298 296 292 294 295 295 296 296 296 296 296 295
316 316 316 317 317 316 315 314 313 313 313 313 313 312 310 310 309 309 309 308 308 307 307 307 307 307 307 307 308 307 307 307 307 306 305 304 303 303 302 302 300 300 299 297 296 295 295 294 294 293 293 293 293 295 294 295 296 296 297 299 297 295 294 293 292 292 292 292 292 294 294 294 294 299 297 291 291 292 296 297 298 299 298 298 293
316 316 316 317 316 315 314 313 313 313 312 312 312 311 310 310 309 309 308 307 307 306 307 306 307 307 307 307 307 307 307 307 306 305 304 303 302 301 301 300 299 298 297 296 295 295 294 294 293 293 292 293 293 295 294 295 296 296 296 297 295 294 294 293 294 293 293 292 292 292 292 292 291 293 293 291 291 291 292 295 296 296 296 298 297
315 315 316 316 315 314 313 312 312 312 312 311 311 311 310 309 309 308 307 307 306 306 306 306 305 306 306 306 307 307 306 306 305 304 302 301 301 300 299 298 297 296 294 294 293 293 293 293 292 292 293 292 293 293 293 294 294 295 295 296 295 296 294 293 293 293 292 292 292 294 292 291 291 291 294 292 292 291 292 294 294 295 295 296 296
315 315 315 315 314 313 312 311 312 312 312 311 311 311 309 308 308 307 307 306 306 305 305 305 305 305 305 306 306 305 305 304 303 302 301 300 299 299 298 298 297 296 295 294 293 293 292 291 291 292 292 292 292 293 293 294 294 294 296 298 294 293 293 293 292 292 292 292 292 294 292 291 291 291 294 291 293 294 292 292 293 293 293 294 295
316 316 315 315 314 312 311 311 311 311 311 311 311 311 309 307 307 307 307 307 306 305 304 305 304 304 305 306 306 305 303 302 301 301 299 299 298 298 298 298 296 294 293 292 292 292 292 291 292 292 292 292 293 293 293 293 293 294 295 295 294 293 293 292 291 292 291 292 293 296 294 291 291 290 292 290 291 295 291 292 292 291 292 292 293
314 314 314 313 313 312 312 312 310 310 310 311 311 309 308 307 307 307 307 306 305 304 305 304 304 304 305 305 304 303 301 301 301 300 299 298 298 297 297 297 295 294 293 293 293 293 292 292 292 292 293 292 290 292 293 293 293 293 295 293 292 291 289 289 290 291 291 291 294 301 301 292 290 291 291 290 291 294 291 290 290 290 290 290 291
314 313 312 312 311 311 311 311 310 309 310 311 310 309 308 306 306 306 306 305 304 304 304 303 304 305 304 304 303 302 301 300 300 299 299 298 297 296 296 296 295 294 294 293 294 293 293 293 293 293 297 292 290 292 292 292 292 293 294 291 292 290 290 289 290 291 291 291 291 295 298 295 292 292 290 290 291 293 290 290 290 289 289 289 290
314 314 313 312 311 311 310 309 309 310 311 310 310 309 307 306 305 305 304 303 303 304 303 303 304 304 303 302 302 302 301 300 300 299 298 297 297 296 295 295 294 294 293 293 293 293 291 290 290 290 292 290 290 290 292 291 292 292 293 292 291 290 291 289 290 293 291 290 290 291 294 292 290 290 290 290 290 291 291 290 290 289 289 289 291
312 311 308 311 310 310 310 309 309 310 310 309 309 307 306 305 304 303 302 303 303 303 303 303 302 302 301 301 301 301 300 300 300 299 298 297 296 295 294 294 293 293 292 291 292 292 292 290 291 290 291 291 293 290 292 291 292 292 292 292 288 289 288 289 289 289 288 288 289 289 290 293 290 291 290 290 291 291 292 292 290 289 289 291 292
310 308 309 310 310 309 309 309 310 310 309 309 308 306 304 303 303 302 302 301 302 302 302 301 301 300 300 300 300 300 300 300 300 299 297 296 295 295 294 294 293 292 292 291 290 291 291 290 290 290 290 290 294 295 290 292 291 292 291 292 291 289 289 290 290 289 288 288 288 288 289 292 290 290 290 290 291 291 291 293 290 290 290 290 292
308 308 309 309 308 308 308 308 309 308 308 308 306 304 302 301 301 300 300 301 301 301 301 300 300 300 300 300 300 300 300 301 300 299 298 296 296 296 295 295 293 293 292 291 291 291 290 290 290 290 288 288 288 292 292 291 291 291 291 291 291 290 291 292 289 288 286 287 287 287 291 293 290 290 290 290 290 291 292 290 290 290 290 290 292
309 310 309 308 308 308 307 308 307 307 307 306 304 301 300 300 299 299 300 301 301 300 300 300 300 299 299 300 300 300 300 299 299 299 298 297 296 296 296 295 294 294 292 292 290 291 290 289 288 288 288 287 287 287 291 291 290 290 290 290 290 290 290 289 290 288 287 286 288 287 290 290 291 290 290 290 290 290 290 290 290 290 291 291 290
308 308 308 308 308 307 306 306 305 305 304 304 303 301 299 298 298 299 300 300 300 300 300 299 299 299 299 300 299 299 298 298 298 298 298 297 296 296 295 294 295 293 293 292 290 291 289 287 286 287 285 285 287 286 286 289 291 290 290 290 290 290 289 290 288 288 288 288 290 290 290 290 290 291 290 291 290 291 290 290 290 290 294 288 289
308 308 308 308 308 306 305 303 303 303 303 302 302 301 298 298 299 300 300 300 300 299 299 299 299 299 299 299 298 297 297 297 297 297 297 295 296 295 295 293 293 292 292 291 289 288 287 286 285 284 284 285 285 284 284 285 290 291 290 290 289 290 291 291 291 288 289 290 290 290 290 290 291 291 291 289 288 290 290 290 290 291 288 287 287
307 307 307 307 306 304 303 302 301 302 302 302 301 301 300 299 299 300 300 300 299 299 299 298 298 298 298 298 296 294 294 294 293 293 293 293 292 291 292 291 291 291 290 289 288 288 287 286 284 283 284 285 283 283 283 283 283 284 285 287 287 289 290 290 289 288 289 289 291 292 288 290 290 290 289 290 289 290 289 289 288 287 287 287 288
308 307 307 306 305 303 303 302 301 302 302 301 301 300 300 300 300 300 300 300 299 299 298 298 297 296 295 294 294 291 292 291 290 291 290 289 289 290 290 290 291 290 289 289 288 287 286 286 284 284 283 283 283 283 284 284 284 284 285 284 285 286 285 283 285 286 286 289 288 290 289 288 287 288 287 286 286 287 286 286 287 286 287 287 290
307 307 306 305 304 303 303 302 302 302 301 300 300 300 300 300 300 300 300 299 298 297 298 296 295 294 292 293 293 292 290 289 287 286 286 285 286 289 289 287 286 287 291 290 289 287 287 286 286 284 283 284 282 283 285 288 285 288 286 284 286 285 285 284 289 289 288 287 286 286 285 286 285 284 285 285 285 285 285 285 286 286 286 286 286
307 307 306 305 304 303 303 302 302 301 301 300 300 300 300 300 300 300 300 299 298 297 296 294 293 292 291 291 291 290 290 289 288 287 287 287 287 289 288 290 287 290 291 291 291 288 288 287 285 283 283 283 284 284 288 288 288 288 288 288 288 288 288 287 289 289 287 283 283 283 282 282 284 282 283 282 283 282 283 283 284 286 285 285 285
307 306 304 303 303 303 302 301 301 301 301 300 300 300 300 300 301 300 300 299 298 296 294 293 292 291 291 291 290 289 288 288 288 287 287 286 286 287 288 289 289 290 290 289 289 290 289 289 289 284 285 288 287 288 288 288 288 288 288 288 288 288 288 288 288 283 283 280 279 281 282 281 282 282 280 282 281 282 280 282 282 281 282 284 285
Wind_Speed
11 13 12 9 10 10 9 9 10 11 13 13 12 12 13 12 12 10 8 8 8 6 4 6 5 4 2 4 4 2 4 3 4 3 2 1 3 3 3 2 2 1 0 0 1 1 1 1 1 3 4 3 1 2 0 0 1 1 0 1 1 2 2 3 4 1 2 4 4 4 6 5 4 4 4 3 3 5 4 5 5 5 5 5 5
12 10 9 8 8 9 9 9 11 13 12 15 15 13 11 11 13 11 7 6 7 4 4 3 3 4 4 3 3 3 3 4 4 3 4 2 3 2 2 2 2 2 0 2 2 1 0 1 4 3 2 2 0 0 2 2 3 2 2 2 1 1 1 2 4 4 4 4 6 6 5 5 4 2 2 6 9 6 4 4 5 5 6 6 5
10 9 9 10 9 10 9 9 10 12 13 13 11 12 12 12 9 6 5 5 7 3 3 3 2 2 4 3 5 4 2 2 3 2 1 1 1 0 2 2 2 2 2 1 1 3 2 2 2 1 0 0 2 3 3 4 3 3 2 1 3 2 1 2 4 3 2 3 1 1 4 7 6 5 3 8 7 6 4 4 4 4 7 7 5
16 15 14 13 12 11 8 8 8 8 10 11 12 14 11 11 11 7 5 6 7 6 3 3 4 4 5 6 5 3 3 4 3 2 2 1 0 1 3 3 2 2 0 1 1 1 1 1 1 2 2 2 2 3 5 6 6 5 4 2 1 2 3 2 2 3 3 3 5 1 2 1 5 3 7 7 2 3 5 6 3 4 5 7 6
16 13 11 13 13 13 11 9 8 8 7 8 11 12 10 11 11 13 8 8 7 8 7 5 6 6 6 6 6 7 5 4 3 2 1 1 0 1 2 3 3 2 0 1 2 2 1 1 2 5 5 5 5 7 7 7 6 5 5 4 3 1 3 1 2 4 3 1 1 2 3 3 1 4 7 6 4 6 5 4 4 4 5 6 6
21 20 17 13 11 9 9 9 8 5 5 6 8 6 6 9 10 9 8 8 7 8 9 7 6 7 7 7 6 4 6 5 6 7 5 4 3 2 2 2 3 2 1 0 0 1 5 5 4 5 7 8 7 6 6 7 7 7 5 4 5 3 0 2 3 3 3 1 2 1 1 1 4 4 2 5 3 5 4 4 4 5 4 5 6
4 8 11 12 12 10 10 10 9 9 7 9 8 7 4 7 7 7 7 7 8 7 7 7 6 6 7 7 6 7 7 4 2 2 3 3 3 4 2 2 2 3 1 1 3 4 5 7 8 8 7 7 6 7 7 6 5 5 4 6 4 3 4 3 3 4 5 3 5 3 1 1 1 2 3 5 9 3 1 4 5 4 5 5 5
12 13 12 12 11 11 12 12 11 10 11 10 9 9 10 8 8 6 5 6 7 7 6 5 7 5 4 4 4 5 5 4 5 4 3 3 4 4 3 2 2 2 3 4 4 6 7 8 8 8 8 7 7 7 6 5 6 6 5 5 6 6 5 5 5 6 5 5 5 7 6 5 4 0 1 1 6 9 9 3 2 5 6 4 5
6 11 13 13 13 12 12 15 14 12 12 13 11 11 10 8 8 7 7 7 7 6 5 4 4 5 6 4 5 3 4 4 4 4 5 3 5 3 4 3 4 4 4 5 6 7 7 7 7 7 7 6 6 6 6 6 6 6 7 8 7 7 6 4 6 6 6 5 5 6 5 6 4 3 3 5 3 5 8 6 10 6 3 3 5
4 7 10 12 14 15 17 16 11 7 8 8 6 6 7 7 8 6 9 8 8 7 6 5 4 4 4 5 6 6 6 5 5 6 5 4 6 5 5 5 5 5 4 5 7 7 7 7 7 7 6 5 6 5 5 6 6 6 5 6 6 7 5 6 6 5 5 5 5 4 6 5 4 5 4 7 3 3 6 9 7 10 12 4 3
7 10 11 13 14 16 19 20 19 15 13 15 13 11 9 9 10 10 9 9 9 8 7 6 5 5 5 6 7 8 7 7 7 6 6 5 6 5 5 5 4 5 5 6 6 6 6 6 6 5 5 5 6 6 5 5 4 5 5 6 7 7 6 6 6 6 5 6 7 6 6 6 4 5 5 6 6 5 7 7 6 5 7 12 5
10 12 13 17 17 14 14 15 16 14 12 13 13 11 11 11 13 13 12 11 10 9 8 7 6 6 5 6 7 7 8 7 8 9 7 7 6 7 5 5 5 5 4 5 5 4 5 5 5 5 6 6 6 4 4 4 4 5 6 6 6 6 5 6 6 7 7 6 6 5 5 5 5 5 5 5 5 6 7 7 7 8 6 4 7
11 12 13 13 14 14 14 14 13 15 14 13 13 12 11 11 13 16 15 13 11 10 9 7 6 6 7 6 5 6 6 6 6 6 5 7 7 7 6 6 5 5 4 5 4 4 5 6 6 6 5 4 4 4 4 5 5 6 6 6 6 7 6 6 7 6 6 6 5 4 5 6 6 5 5 5 5 5 6 7 7 6 7 8 6
10 12 12 13 14 13 13 13 13 12 13 13 12 12 12 11 10 10 12 12 11 10 8 7 6 6 6 6 5 5 6 6 5 7 6 6 7 7 6 6 6 5 5 5 4 5 5 5 5 5 4 4 5 6 6 6 6 6 6 7 7 5 6 6 6 5 5 5 4 5 5 6 6 6 6 6 7 7 6 7 8 6 5 7 6
10 11 11 12 12 13 12 13 13 13 14 13 10 11 11 11 9 10 10 11 11 11 8 8 7 6 6 6 5 5 7 7 6 6 7 8 6 7 6 6 6 5 6 4 4 6 5 4 4 5 5 6 7 7 7 7 6 7 6 6 6 6 7 6 6 6 7 7 7 7 6 7 6 6 7 7 7 7 7 7 7 9 6 5 6
10 10 11 12 14 14 12 12 12 12 12 10 10 10 10 9 9 10 10 10 10 10 9 9 8 7 7 8 7 7 7 7 7 6 6 7 6 7 7 6 5 5 3 4 4 5 4 4 4 5 6 7 7 7 7 7 7 7 6 6 7 5 7 8 6 6 7 8 8 7 7 7 8 7 7 7 7 6 6 6 6 6 8 8 7
11 10 11 14 13 12 12 12 11 11 10 11 10 11 11 11 11 11 11 9 10 11 11 10 9 9 8 8 7 7 8 8 8 8 8 6 6 6 6 5 4 4 5 4 6 5 5 5 7 8 8 7 6 6 7 7 7 6 6 5 6 7 6 7 6 6 6 6 7 9 8 7 8 7 7 7 6 6 5 5 5 6 7 8 7
10 10 12 14 13 12 10 10 11 12 12 12 12 10 12 11 12 12 11 12 11 12 11 11 11 9 8 8 6 7 8 8 8 8 7 7 6 5 5 5 4 3 4 4 4 5 8 10 9 8 7 7 6 6 7 6 5 5 5 7 7 6 5 5 5 5 5 5 7 8 7 6 6 6 6 6 6 6 5 5 5 5 6 6 7
12 13 13 12 11 10 10 11 11 10 10 11 9 9 11 11 11 11 12 12 13 11 11 9 10 7 7 7 8 8 8 8 7 7 6 7 6 6 6 5 5 5 6 5 6 9 9 8 8 7 7 7 7 7 6 5 5 7 7 7 6 5 4 4 4 4 4 6 8 8 7 6 6 6 6 6 6 7 7 6 5 5 6 5 7
13 12 12 11 11 10 11 12 12 12 12 11 10 10 12 11 11 11 10 11 12 13 12 11 9 9 8 8 8 8 7 7 6 7 7 7 6 6 6 6 5 4 5 7 9 9 9 8 7 7 7 7 7 7 7 6 7 7 6 6 5 4 4 5 5 5 6 7 8 8 7 6 6 5 6 6 6 6 7 7 6 6 5 5 6
13 14 12 12 11 10 9 10 10 10 9 8 9 11 12 11 12 12 13 12 12 11 11 10 9 9 10 10 9 8 9 7 8 8 8 7 6 6 5 4 5 5 7 9 9 9 8 8 8 7 7 6 7 7 6 6 6 6 5 5 5 5 6 7 6 6 7 9 8 8 7 7 6 6 6 6 6 6 6 6 6 6 6 6 6
14 13 12 11 10 10 10 10 9 9 9 10 10 10 10 11 11 11 11 11 12 10 10 10 10 10 11 10 9 8 8 8 9 7 8 7 6 6 5 5 5 6 8 9 9 7 7 8 7 7 7 6 6 7 6 5 5 5 6 7 8 9 9 8 8 9 8 7 7 7 8 7 6 6 6 7 6 7 6 6 6 6 6 7 6
14 13 11 10 10 11 11 12 11 10 10 10 10 11 11 10 10 10 11 10 11 11 10 11 11 11 11 9 9 9 9 9 9 7 7 6 5 5 4 5 5 7 7 8 8 8 8 8 8 7 7 7 7 7 6 6 6 6 7 9 9 8 8 8 9 9 9 7 7 8 8 7 6 6 6 6 6 7 6 6 7 5 6 7 7
12 11 9 9 10 11 11 11 11 10 11 11 11 12 11 10 9 10 12 12 12 11 11 12 12 12 11 11 10 9 10 8 8 6 6 5 4 4 3 6 7 7 8 7 8 9 9 8 8 7 7 7 7 6 6 6 6 6 8 9 8 8 8 8 8 8 7 7 7 8 7 6 6 7 7 7 7 6 6 6 6 6 6 7 6
13 12 12 12 12 12 10 10 10 11 11 12 12 12 12 11 10 11 11 11 11 11 12 11 12 12 10 10 9 9 9 9 8 7 7 5 4 3 4 6 8 8 8 8 8 8 9 8 8 7 7 7 6 5 6 6 6 6 8 9 9 8 8 8 7 7 7 7 7 7 6 6 6 7 7 8 7 8 7 6 6 6 6 5 5
15 13 13 14 12 10 10 10 11 11 12 12 12 12 12 12 11 10 11 11 11 11 11 11 11 11 10 10 9 9 9 9 8 7 7 5 3 4 6 7 8 9 8 8 9 7 7 7 7 6 6 6 5 5 5 5 6 7 8 9 9 8 8 7 7 7 6 6 5 5 5 6 7 8 7 7 7 8 7 7 7 7 7 6 6
15 14 12 11 10 12 11 11 11 12 12 12 12 12 12 12 12 10 10 11 11 11 11 11 11 11 10 8 8 8 8 8 6 4 4 3 3 5 8 8 7 9 9 9 8 8 6 7 6 6 6 6 5 5 6 6 7 7 8 9 8 7 7 7 6 5 5 5 4 4 6 6 7 7 7 6 6 6 6 6 7 7 7 8 7
11 12 14 13 12 11 11 12 12 11 12 12 11 11 12 12 12 11 11 11 10 11 11 11 11 10 9 8 7 7 7 6 4 4 4 4 5 8 9 8 8 9 9 9 8 7 5 6 6 6 5 4 5 6 6 6 7 7 8 7 7 7 7 5 5 5 4 4 5 5 5 6 6 6 6 5 4 5 5 5 6 5 6 6 6
14 14 14 13 13 12 12 12 12 12 13 13 12 12 11 10 11 11 11 11 11 11 11 10 10 10 8 8 7 6 6 5 4 4 5 6 7 9 9 8 9 9 8 8 6 6 6 6 5 5 5 5 7 6 4 5 7 7 6 7 7 6 5 5 4 5 5 5 5 6 5 6 9 11 12 9 9 6 4 6 7 7 7 7 7
15 15 14 13 14 13 14 14 13 14 14 13 12 12 12 12 12 11 12 11 12 12 12 12 11 9 8 9 8 6 6 4 4 5 6 7 8 9 9 9 9 9 8 7 6 5 5 5 6 6 6 6 6 4 4 8 8 6 5 6 6 5 4 4 5 5 5 5 5 5 6 11 11 10 11 12 12 13 11 7 5 5 6 7 7
14 14 14 13 13 13 14 14 14 14 15 14 13 12 12 12 12 12 11 10 11 11 10 11 11 10 10 10 10 8 4 3 4 5 6 8 8 8 9 9 9 8 8 6 6 6 5 5 6 6 7 6 5 3 5 10 12 11 6 5 5 4 4 4 4 5 5 5 5 5 4 6 6 6 7 10 11 11 11 11 11 11 8 5 5
16 15 15 15 15 15 16 16 16 15 15 14 14 13 13 12 11 11 10 10 11 10 10 10 9 9 10 11 10 8 6 5 6 6 7 7 8 9 9 9 9 9 7 6 7 5 4 4 5 6 6 5 4 3 8 10 11 11 8 6 4 4 4 4 4 4 4 4 4 5 4 3 4 5 5 6 8 10 10 10 10 10 10 10 8
15 16 16 16 16 15 14 13 13 14 14 13 13 12 12 12 12 11 11 11 11 10 10 10 9 9 10 10 8 8 7 7 7 7 7 7 8 9 9 9 9 7 6 7 5 5 5 4 6 7 5 4 3 4 8 9 10 11 10 6 4 4 4 3 3 3 4 4 4 5 5 5 5 10 8 5 5 6 9 11 9 9 9 9 9
13 14 15 14 12 11 11 12 12 12 12 11 10 12 11 10 10 9 10 10 11 10 11 9 8 8 9 8 8 7 7 7 7 7 7 7 8 8 8 8 8 7 7 6 5 5 4 5 5 6 5 4 3 3 7 9 9 10 10 6 4 3 3 2 2 2 3 4 3 4 5 6 6 6 6 7 5 5 6 6 7 6 6 7 8
18 17 16 15 14 13 13 13 13 13 12 14 13 13 13 12 12 11 10 10 8 10 9 9 8 7 7 7 7 7 8 8 7 7 7 7 7 8 9 7 7 7 7 6 5 5 4 4 4 5 6 5 3 5 10 10 9 8 8 6 3 3 2 1 2 2 3 4 4 4 4 5 5 6 6 6 5 6 6 7 7 7 7 6 5
15 17 16 16 16 15 14 13 11 12 12 13 14 13 13 12 11 11 11 10 8 8 7 7 7 6 7 7 7 8 8 7 7 7 7 7 8 9 9 7 7 6 5 5 4 4 5 5 4 6 7 6 3 10 13 12 12 11 9 4 3 2 1 2 3 4 4 4 4 5 5 6 5 5 9 11 8 5 5 6 7 7 8 8 7
11 14 14 13 13 13 13 13 12 12 13 12 11 12 12 12 11 11 12 11 10 8 7 7 6 6 7 7 8 8 8 7 7 8 8 8 9 9 8 7 8 6 5 5 4 4 4 5 6 6 8 6 6 8 13 12 12 13 8 5 3 2 1 2 3 4 4 5 5 5 5 6 5 5 9 10 11 7 5 6 7 8 8 7 8
11 8 10 12 13 13 13 15 14 12 12 12 12 12 13 13 12 11 12 12 10 9 7 7 7 7 8 8 9 9 8 8 8 9 8 8 8 7 7 7 8 6 5 4 4 5 4 5 6 7 7 8 5 7 12 13 14 13 8 5 3 3 3 3 5 5 5 6 7 12 9 5 5 5 8 10 9 5 5 6 6 7 8 8 8
15 16 13 13 12 13 12 12 14 15 13 12 13 13 13 12 12 11 11 12 11 9 8 8 8 8 8 8 8 9 9 9 9 9 9 9 8 8 6 7 7 6 5 5 5 6 6 5 6 6 9 9 6 7 12 12 13 11 7 4 4 3 4 4 5 7 6 6 7 7 11 9 6 6 10 9 9 6 5 5 5 7 8 8 7
11 14 16 15 13 13 12 14 15 13 11 12 12 12 12 12 11 9 9 10 10 9 8 8 8 9 8 8 8 9 9 10 10 9 8 8 7 7 7 8 7 6 6 4 4 6 7 5 4 5 6 5 6 5 7 11 12 11 8 4 3 5 4 4 4 5 7 7 6 6 7 11 10 10 10 10 10 9 5 5 5 6 6 8 6
10 11 13 14 14 15 14 13 10 12 11 11 11 11 11 10 10 10 10 9 8 8 9 8 8 8 8 9 8 9 10 9 9 9 8 8 7 8 8 8 7 6 5 5 5 5 6 5 5 5 6 5 5 5 6 11 11 10 8 6 3 3 1 3 4 5 5 5 6 6 5 8 9 10 10 11 11 12 9 6 6 5 4 5 6
9 12 12 11 12 12 12 11 12 12 11 10 10 10 10 11 10 10 8 7 8 9 9 8 9 9 8 9 9 9 9 8 8 9 9 8 6 8 8 8 7 6 6 5 4 4 6 5 5 5 5 5 6 8 6 10 11 10 9 7 5 1 0 3 6 5 5 5 4 4 4 6 9 10 10 10 11 11 12 7 9 11 13 13 8
12 12 12 13 12 13 13 12 10 10 9 9 10 11 9 10 11 9 7 8 9 10 10 9 9 9 9 9 9 9 8 7 8 9 10 9 7 8 7 7 7 6 6 6 5 5 6 6 6 5 4 4 5 5 8 6 9 9 9 9 7 5 4 3 5 4 3 4 4 3 4 8 10 9 10 10 10 11 9 9 13 14 13 13 10
13 13 12 12 13 13 12 10 10 9 9 10 12 11 10 11 11 7 9 9 10 10 10 10 9 9 9 9 9 8 8 7 9 9 9 9 8 7 7 7 7 7 7 6 6 6 6 5 5 5 4 4 3 4 6 6 5 8 8 7 8 9 8 3 2 2 2 4 4 4 4 8 10 10 9 9 10 10 8 12 13 13 13 10 7
14 14 14 13 15 15 13 11 9 10 9 10 10 13 13 13 8 9 11 11 11 11 11 10 10 9 9 8 8 7 7 8 8 9 9 8 7 7 7 6 7 7 7 7 6 5 6 6 6 5 3 3 3 3 3 4 7 7 8 8 8 9 9 6 3 2 1 3 5 4 7 10 10 10 10 8 8 9 12 12 13 12 10 7 7
13 12 12 13 13 14 14 14 11 10 10 10 10 13 15 11 8 9 11 11 12 12 11 11 10 9 9 9 9 7 7 7 7 8 8 7 8 8 8 7 7 7 7 7 6 5 6 6 6 4 4 2 2 2 3 3 4 4 5 8 7 7 7 5 2 2 5 6 8 8 8 9 9 7 6 5 5 6 10 12 12 11 7 7 6
17 15 13 12 13 13 13 14 14 12 11 11 11 10 12 11 10 9 11 11 12 12 11 10 10 9 8 8 9 7 6 6 5 5 5 5 5 6 6 6 7 7 6 6 7 6 6 6 6 4 3 2 2 2 2 2 3 4 4 4 6 6 8 9 8 7 7 6 6 5 4 4 5 7 7 6 6 7 8 8 7 7 6 7 6
16 16 15 14 13 14 14 14 13 12 12 12 12 12 12 12 10 10 10 12 12 12 11 10 9 7 7 7 8 10 9 6 5 6 6 6 4 5 7 8 8 8 8 7 7 7 7 7 7 5 3 3 3 2 1 2 2 3 4 4 4 4 5 4 5 5 5 3 3 4 7 7 6 7 7 6 6 6 5 5 7 6 6 6 8
16 16 16 16 15 15 16 16 14 11 12 12 12 12 12 13 11 10 11 12 11 11 11 9 8 8 7 7 8 7 7 8 7 7 6 4 3 5 7 4 0 3 9 10 7 7 7 6 7 7 6 5 3 3 1 4 0 1 1 3 6 6 5 4 5 6 3 2 4 7 6 6 6 5 6 6 6 6 7 6 6 7 7 7 7
15 14 15 15 16 17 16 15 13 12 12 13 12 12 11 12 12 10 11 12 11 10 9 9 8 8 8 8 8 7 8 8 8 7 7 6 7 8 3 7 5 3 3 10 13 8 9 7 6 5 4 7 7 4 4 3 3 2 2 3 4 6 6 4 6 5 3 5 3 4 4 4 5 5 6 5 5 5 6 7 7 6 6 7 6
15 15 15 15 14 13 13 15 14 12 12 13 12 11 11 11 11 11 12 12 11 9 8 8 9 8 9 9 8 8 7 7 7 8 8 8 6 8 12 10 7 7 9 8 7 12 12 9 8 5 2 4 4 3 2 2 3 4 3 3 3 5 7 5 3 0 5 4 4 5 3 4 3 4 4 3 3 4 4 4 5 5 5 7 6
Wind_Direction
164 169 171 163 163 167 158 147 147 150 147 143 148 158 157 157 146 156 163 149 144 161 180 144 131 114 95 136 129 112 122 108 98 89 85 151 186 189 169 141 137 154 226 223 192 110 80 206 156 56 46 78 98 124 197 238 188 168 169 87 45 20 323 330 333 312 355 324 328 313 309 300 302 321 308 292 301 289 280 286 281 289 271 260 237
146 162 166 164 162 162 155 150 151 151 161 156 157 154 151 154 156 160 154 149 131 169 177 169 134 154 146 148 124 121 116 124 124 128 163 190 204 196 129 144 158 139 41 316 342 355 277 330 52 66 66 45 328 175 74 87 54 60 66 27 25 32 300 334 331 6 13 349 328 327 324 319 317 335 349 349 347 319 303 288 289 291 287 273 269
162 163 158 171 163 163 158 160 162 160 160 152 137 142 155 159 147 108 128 141 128 132 171 150 101 105 124 132 124 114 65 84 111 139 147 162 216 216 107 108 82 40 72 77 248 204 140 68 85 169 87 81 20 33 46 41 40 36 76 87 347 6 324 313 1 56 345 304 279 36 335 356 334 351 351 344 320 322 315 300 300 298 288 289 286
171 174 171 174 170 160 158 156 158 158 151 143 145 152 156 152 127 120 153 159 133 121 134 97 104 102 89 107 89 81 132 114 86 90 87 81 61 49 83 99 86 68 10 295 306 349 45 86 7 47 16 359 349 36 27 26 25 27 56 73 104 23 358 318 353 33 66 25 1 328 258 69 334 318 322 308 305 298 329 321 314 297 297 304 311
171 170 171 171 171 165 156 151 150 156 150 141 146 153 160 152 142 142 158 154 140 134 134 129 114 98 98 86 91 90 74 82 102 110 138 150 141 59 96 101 106 114 231 292 315 321 327 4 35 40 36 36 51 47 47 41 38 37 35 55 60 103 11 314 316 1 31 50 118 14 351 15 256 281 330 298 337 346 317 313 319 312 311 313 314
170 176 174 169 159 143 137 138 133 101 92 112 122 130 137 143 147 143 150 154 136 137 139 140 142 138 136 138 142 136 139 152 173 171 166 176 173 114 91 91 110 116 91 221 278 21 48 51 63 66 53 48 49 57 53 47 39 38 28 47 45 5 126 48 346 328 355 56 95 139 183 232 312 312 23 306 314 273 273 299 297 302 312 310 306
144 140 155 155 156 134 128 121 107 102 107 112 116 122 136 144 142 144 145 139 130 127 138 141 139 151 163 172 166 161 157 184 134 113 148 149 136 128 132 104 108 111 100 12 43 56 64 57 56 56 54 51 44 49 45 40 33 33 19 39 30 19 38 39 11 325 336 2 1 7 16 286 273 336 318 312 320 323 346 319 303 306 314 310 299
161 152 153 148 137 125 125 116 111 111 120 135 145 148 152 155 139 131 121 117 120 130 135 150 152 156 166 171 157 151 156 150 142 135 138 142 135 133 128 121 113 88 67 55 61 66 64 59 57 56 57 50 51 50 49 37 40 31 35 42 48 43 37 44 34 25 41 357 352 9 1 2 359 299 237 281 299 310 312 298 301 316 313 293 293
143 150 149 135 120 120 117 115 117 130 146 157 162 151 153 151 138 134 130 125 124 123 133 141 147 163 165 154 136 110 115 124 123 129 142 141 126 128 120 109 86 74 77 80 68 66 65 67 63 62 59 54 54 50 45 43 45 40 35 40 44 47 46 49 60 35 36 31 6 10 9 8 342 345 0 8 325 312 298 324 323 314 275 272 309
112 130 127 119 117 114 114 109 118 154 154 146 118 137 149 147 143 147 134 128 130 135 143 144 151 152 160 153 141 133 129 128 136 142 145 152 134 128 111 100 94 80 68 72 75 69 69 66 66 65 62 60 57 53 49 47 41 47 47 55 53 59 43 50 58 49 50 39 44 25 34 358 21 8 8 346 308 237 294 316 318 321 325 315 303
130 130 124 114 113 122 129 147 163 159 161 156 155 164 167 161 158 162 153 141 147 148 146 147 144 151 159 155 152 148 151 145 141 143 145 150 132 121 105 92 80 82 76 65 66 72 75 74 76 73 66 61 57 52 51 54 50 57 59 60 55 55 50 55 53 49 49 42 37 39 34 31 21 5 348 347 336 322 318 306 310 310 302 309 326
136 135 134 126 126 134 143 147 151 153 161 167 161 161 163 170 168 165 159 154 152 148 147 148 141 142 147 152 154 154 154 153 151 150 156 144 129 113 105 96 83 80 74 76 69 80 83 80 80 78 69 64 61 62 56 54 58 63 61 61 60 59 56 56 51 46 39 43 40 30 37 27 23 9 348 339 341 330 316 316 325 328 309 290 315
143 142 141 138 135 142 150 148 147 153 165 170 163 160 165 182 179 165 162 158 155 151 149 142 139 142 145 147 145 146 144 145 145 133 131 127 123 119 116 107 110 89 87 94 90 87 88 79 74 76 72 70 71 57 45 48 53 63 64 61 57 55 52 54 54 48 45 45 33 25 38 33 22 357 347 352 341 333 334 332 332 327 316 318 321
148 149 145 139 142 147 149 150 156 160 164 167 165 164 166 174 181 171 156 151 143 142 139 133 128 130 134 137 145 141 132 130 122 117 113 110 116 117 117 119 110 111 107 93 99 87 77 86 92 89 87 69 58 55 53 56 62 64 59 57 55 55 54 54 54 47 45 45 42 39 40 36 27 7 3 0 355 344 346 343 331 328 323 318 314
153 153 145 138 139 146 153 160 164 167 168 168 160 162 165 168 168 160 151 148 143 141 137 126 123 125 122 124 128 117 118 110 106 112 116 115 116 116 115 116 112 115 106 109 92 85 84 89 89 81 68 62 59 60 62 63 62 62 57 57 58 51 49 44 43 38 39 37 38 40 38 36 25 20 14 7 1 1 354 349 335 335 328 321 321
156 145 134 135 146 158 161 165 166 162 160 157 154 160 162 160 157 154 149 142 139 135 129 125 125 121 118 116 115 111 107 105 101 100 101 108 114 114 115 111 111 114 107 101 85 92 93 81 72 69 65 63 63 67 68 67 62 62 54 56 61 48 53 48 45 44 44 48 50 46 44 35 28 22 16 10 7 2 357 352 351 347 336 323 330
152 137 138 147 157 162 163 163 160 154 157 161 156 159 158 152 151 148 147 140 134 131 126 124 121 116 114 113 116 112 111 112 115 110 108 104 106 106 108 108 105 102 103 92 91 92 96 78 58 52 52 52 56 61 69 68 68 63 59 56 64 57 52 47 47 49 45 53 51 48 47 38 33 23 19 12 5 358 358 351 356 349 332 326 332
130 133 147 156 162 158 158 163 158 159 160 159 159 158 150 147 148 143 140 134 130 125 122 122 120 116 115 110 100 100 106 107 108 109 108 105 97 96 98 92 87 87 88 94 96 79 64 67 69 63 57 55 56 56 62 65 65 60 52 57 62 58 52 49 50 49 46 51 57 54 46 41 23 22 17 2 0 347 345 342 341 334 330 331 327
139 147 153 162 162 154 157 158 153 148 149 155 154 146 142 142 141 137 135 131 128 122 118 114 115 115 111 107 105 101 102 103 103 102 102 101 98 96 91 94 85 79 84 83 71 70 73 66 68 65 57 55 53 54 48 46 52 60 57 62 61 52 41 49 45 49 47 56 61 53 44 38 17 14 10 3 359 350 342 330 328 330 327 331 324
145 153 160 159 154 153 153 151 151 150 149 156 151 143 140 138 132 127 123 122 120 119 119 115 113 110 102 96 94 99 101 102 102 104 97 93 94 92 91 84 93 92 88 75 78 78 74 74 66 67 63 55 56 50 49 48 58 58 54 58 49 39 37 38 45 53 60 63 59 49 37 29 15 12 9 2 357 351 343 335 334 331 323 326 319
154 159 160 156 152 143 140 145 144 143 143 144 144 141 138 133 129 130 129 124 117 115 110 110 106 98 99 98 98 96 93 92 91 90 91 89 85 85 84 94 87 89 76 76 77 77 76 77 71 65 65 57 56 53 43 49 62 70 61 54 35 30 40 37 33 45 64 66 58 48 34 24 16 16 5 358 357 347 343 338 333 333 325 326 330
156 158 155 152 144 139 141 143 142 143 144 140 133 126 124 127 129 128 123 121 115 107 107 104 99 100 99 99 93 90 90 91 91 87 89 87 84 81 92 88 86 64 81 87 83 81 81 78 77 67 60 56 53 52 39 40 46 54 54 47 48 47 48 44 40 38 50 60 56 46 33 21 15 11 2 1 353 348 345 340 341 336 330 324 327
154 153 151 148 146 146 147 147 148 146 138 129 127 126 126 126 125 123 115 110 108 108 106 105 103 101 98 94 94 92 95 93 92 87 88 87 87 96 99 94 72 81 78 83 87 84 82 79 73 63 56 53 48 48 36 39 39 41 58 65 59 56 53 51 47 42 41 41 42 39 29 19 8 9 6 356 352 349 341 340 335 331 328 322 322
144 144 140 142 142 143 142 144 146 142 135 131 128 125 123 123 120 115 113 113 109 108 105 103 102 99 99 96 94 97 95 94 90 90 90 89 99 112 99 69 81 87 82 75 79 83 78 73 68 60 54 50 47 43 43 40 42 49 71 73 68 61 57 52 50 45 40 41 40 35 24 15 8 12 6 1 354 347 345 338 334 334 328 328 320
147 146 143 142 146 149 146 143 141 136 133 131 131 129 127 125 123 118 116 113 109 108 106 104 103 101 97 98 99 100 100 97 98 98 100 104 122 112 81 90 96 89 88 85 77 75 75 69 68 64 60 54 47 44 46 44 48 61 77 76 68 63 56 53 51 46 44 44 39 36 16 13 16 17 9 4 353 354 346 341 342 339 336 326 320
150 144 144 149 149 141 137 140 138 138 137 135 134 131 129 126 124 124 119 111 108 106 104 103 101 99 99 99 101 99 98 100 101 106 119 134 123 85 83 94 96 92 86 83 83 73 75 75 71 68 67 65 55 52 54 57 64 76 80 74 67 61 56 55 50 48 45 37 41 30 18 20 22 22 6 357 354 349 344 349 354 353 351 333 345
151 146 143 138 139 142 140 138 139 140 140 137 134 132 131 128 124 118 114 111 109 107 106 103 101 101 100 98 97 98 99 98 95 94 86 82 81 89 99 100 98 98 96 92 85 83 72 77 73 69 65 65 66 61 64 66 71 75 77 75 69 62 58 55 49 45 36 29 26 22 22 20 25 20 9 356 345 347 343 349 3 1 8 11 3
141 140 145 148 144 139 139 140 139 139 136 131 133 132 132 130 123 118 115 112 112 108 107 104 104 102 101 101 98 100 101 96 93 79 76 77 86 101 106 102 98 96 95 93 92 89 79 72 69 71 68 72 75 71 70 75 75 78 77 74 70 68 63 55 50 40 32 28 17 11 14 16 16 17 11 355 358 346 340 353 356 358 4 8 358
149 150 151 150 150 146 143 143 141 139 138 137 135 132 129 125 123 122 121 118 115 108 103 103 105 105 106 104 100 98 101 105 96 90 90 89 98 106 107 105 100 97 93 91 88 85 83 76 71 71 72 67 70 68 70 80 86 78 78 75 72 70 67 66 51 40 31 24 18 11 1 12 11 11 7 3 359 6 11 0 355 357 360 359 356
154 155 157 155 152 149 147 146 148 145 141 137 137 137 136 133 129 126 122 125 123 126 127 121 119 119 116 113 109 104 105 103 86 89 90 98 104 106 103 97 93 91 91 87 81 73 71 73 74 67 64 65 61 59 58 82 92 96 84 81 80 75 74 68 59 45 31 23 14 7 352 5 2 358 2 1 2 4 7 14 7 10 4 4 0
153 153 155 155 154 151 150 149 148 146 144 141 140 138 135 131 129 128 125 126 117 116 119 122 126 131 129 125 119 121 135 99 91 94 98 100 101 101 98 95 93 92 89 88 84 79 73 69 71 73 68 63 60 55 90 101 99 98 96 94 91 84 74 65 61 52 37 18 7 355 345 349 351 351 352 352 352 356 357 356 2 7 16 27 14
156 156 153 156 160 160 158 154 150 147 144 143 143 142 137 133 128 123 124 121 117 123 125 126 132 132 129 127 131 132 130 115 109 107 106 103 101 101 102 103 102 96 92 90 83 80 79 75 76 71 69 68 68 68 110 104 104 104 106 102 99 91 81 70 61 48 30 16 3 356 349 342 338 358 9 350 342 340 343 341 344 351 354 9 13
156 156 159 162 165 162 155 147 144 144 144 143 139 134 131 130 127 129 126 125 126 128 126 130 138 138 135 136 138 126 125 117 118 120 113 104 100 101 103 103 100 102 98 88 88 83 74 72 75 76 71 63 70 65 111 113 114 114 113 110 100 102 92 84 62 46 23 6 1 1 2 1 346 1 4 350 340 333 336 336 336 337 335 352 354
153 157 159 160 156 153 149 143 138 134 130 125 117 114 109 112 121 122 123 126 129 132 133 139 140 142 142 141 129 124 121 122 125 121 112 106 98 95 100 100 100 96 94 90 82 82 79 76 78 80 78 63 62 47 115 117 123 122 123 117 114 100 92 76 51 13 1 1 355 7 8 3 353 358 357 351 341 341 338 339 342 339 334 331 337
165 165 163 161 159 150 143 139 139 136 131 126 127 132 137 134 133 130 127 125 128 131 136 142 143 143 138 132 127 123 123 130 126 116 106 97 91 95 97 98 100 102 100 100 100 94 85 80 79 83 78 65 33 83 89 83 82 92 99 102 89 73 50 5 317 301 322 346 351 359 13 15 357 353 359 349 348 345 347 352 351 346 339 334 327
170 161 160 157 158 152 145 139 134 133 134 138 139 138 134 135 133 129 127 126 128 132 141 146 142 137 137 134 130 126 131 128 117 110 102 99 102 106 107 107 100 92 89 93 84 89 93 87 82 83 82 73 51 85 88 88 93 97 96 82 76 60 21 332 321 329 346 355 0 8 13 11 4 353 348 352 3 355 5 2 358 354 354 352 352
160 156 152 149 140 140 141 138 139 138 138 138 134 137 134 133 133 133 133 136 137 143 151 151 141 140 140 137 133 132 128 121 121 114 109 111 113 111 108 109 101 102 106 102 105 98 101 99 89 85 88 78 58 69 85 87 89 92 86 80 74 55 349 340 332 336 350 1 6 12 21 13 5 0 345 358 2 15 20 9 6 6 5 6 359
142 135 135 142 145 142 145 144 140 140 141 146 148 141 139 137 140 141 139 137 142 152 158 151 147 149 142 137 135 129 126 128 123 122 122 120 117 114 119 119 116 122 115 120 115 102 94 97 94 89 89 87 66 55 77 80 83 82 88 86 67 59 11 349 342 356 2 4 1 9 23 20 10 357 357 11 4 18 30 15 15 14 13 9 356
153 148 147 144 144 144 142 137 137 147 155 148 143 143 139 140 142 146 151 147 154 160 158 151 151 146 138 136 129 125 129 128 125 127 127 127 128 128 127 117 118 122 125 122 111 105 98 86 91 95 90 87 79 59 63 71 74 77 81 78 79 69 40 7 5 3 3 11 2 0 10 18 14 9 19 22 21 26 34 21 16 23 15 9 345
151 148 145 143 138 137 143 148 155 153 146 143 142 143 141 143 149 147 148 150 155 158 148 143 143 139 136 128 124 127 130 129 129 128 128 128 127 122 129 124 127 132 131 123 111 104 99 93 89 85 79 80 79 62 58 68 71 67 72 81 57 67 39 19 19 25 9 357 359 358 359 6 10 22 27 30 33 32 35 20 20 28 15 1 328
143 139 138 141 146 148 153 151 142 146 149 146 142 139 141 145 148 149 154 157 148 141 140 140 134 129 126 123 126 131 131 131 133 134 132 129 132 134 133 128 134 130 121 115 109 105 97 86 73 70 70 56 66 68 47 57 68 67 61 79 80 88 87 53 41 27 15 357 347 344 333 360 13 32 35 33 35 34 31 30 24 24 8 330 350
131 134 137 142 141 135 129 137 153 154 150 147 144 138 138 146 149 152 154 136 134 137 132 128 126 123 123 126 130 131 130 133 134 131 131 132 137 134 135 138 138 134 129 122 115 103 98 85 66 60 64 60 52 61 63 51 63 68 67 71 75 39 2 56 42 25 4 359 331 317 325 346 28 35 35 34 32 35 34 35 19 18 10 9 4
138 139 140 138 135 136 141 141 149 151 145 147 139 131 132 136 143 149 136 131 132 131 129 126 122 123 126 129 131 130 129 132 138 138 138 144 148 145 145 142 141 137 131 129 124 120 103 94 76 55 50 51 50 54 62 67 61 66 65 66 69 60 26 65 71 34 329 304 300 303 324 8 37 29 29 31 32 28 33 27 24 20 17 9 6
145 142 143 139 135 136 138 146 148 144 145 146 140 134 133 131 139 141 130 129 128 127 125 124 125 126 128 132 133 130 128 129 136 139 142 148 156 155 151 151 148 140 137 132 136 123 111 100 93 78 46 38 34 57 49 56 62 58 55 55 56 46 39 27 75 50 309 286 313 330 334 24 36 28 23 21 27 32 29 26 23 19 19 15 9
149 149 147 146 144 143 140 140 139 138 141 137 135 132 129 129 142 138 135 131 129 127 125 126 129 130 130 131 125 125 128 130 137 142 148 154 158 154 152 160 145 143 142 144 150 135 123 121 113 108 86 50 25 38 36 28 42 42 38 32 32 33 24 34 48 0 310 293 283 310 15 37 35 29 23 22 19 18 20 24 21 17 20 17 12
142 142 148 144 141 139 141 139 135 137 133 132 137 135 132 138 141 138 133 131 129 126 126 130 131 131 132 130 125 122 123 128 136 140 146 155 157 159 154 156 148 145 149 142 146 130 123 123 123 133 119 103 37 46 34 10 18 21 19 18 16 25 24 17 12 355 334 348 5 6 23 31 38 26 28 20 22 10 16 20 18 18 16 17 14
149 149 144 143 144 143 144 142 141 141 137 140 138 133 132 136 138 138 134 131 129 127 129 131 132 131 127 122 116 114 108 101 100 90 90 99 112 118 119 123 127 134 131 133 134 133 135 137 134 140 134 106 73 52 35 17 6 18 14 2 12 8 6 16 19 358 358 354 346 3 15 22 51 49 42 27 26 14 18 13 12 10 13 8 11
148 147 149 146 149 147 145 145 145 147 145 143 139 138 139 138 138 139 135 131 131 134 135 136 131 122 115 116 114 113 111 98 88 101 103 92 84 110 124 139 144 140 137 143 145 152 148 144 147 154 138 108 85 70 49 41 6 12 3 6 9 21 15 358 340 343 329 333 344 358 25 23 22 28 19 18 9 12 20 14 10 6 7 5 8
152 154 153 154 153 153 155 151 149 151 145 141 142 143 144 142 141 141 138 133 135 135 130 124 120 116 115 116 116 115 114 110 99 81 61 62 105 133 123 98 248 204 158 150 160 156 158 160 150 158 142 129 119 122 192 209 209 219 0 359 358 342 334 325 304 306 310 358 28 32 19 21 28 31 25 15 5 10 6 6 11 6 3 7 12
155 152 154 154 158 157 153 149 148 150 146 144 146 147 148 146 142 144 140 137 139 133 127 127 125 123 125 121 118 119 119 117 115 112 103 73 41 43 31 138 131 86 123 150 147 159 172 157 150 189 170 151 160 189 197 182 241 295 291 288 284 289 282 280 299 346 75 71 47 59 25 39 32 36 31 19 7 8 10 6 358 356 3 8 8
156 152 153 155 155 152 145 146 150 151 149 148 149 150 151 152 149 147 144 142 140 132 129 131 130 134 135 130 128 125 128 123 124 123 116 110 83 41 36 44 97 132 133 128 122 131 149 169 151 152 198 173 167 170 179 260 346 346 337 312 300 286 291 275 254 123 34 58 52 55 16 29 34 50 36 15 10 21 2 11 357 347 354 3 0